Orbital Elements at Epoch 2459000.5 (2020-May-31.0) TDB
Reference: JPL 23 (heliocentric ecliptic J2000)
Element | Value | Uncertainty (1-sigma) | Units |
e | .2137845484894127 | 3.487e-08 | |
a | 3.172530113093113 | 1.5922e-08 | au |
q | 2.494292195296437 | 1.1402e-07 | au |
i | 12.68502421062489 | 4.1431e-06 | deg |
node | 238.4046034872753 | 1.9539e-05 | deg |
peri | 199.1685371687892 | 2.2977e-05 | deg |
M | 314.3844967394396 | 1.0324e-05 | deg |
tp | 2459262.027297662809 (2021-Feb-16.52729766) | 5.9652e-05 | TDB |
period | 2063.987469804242 5.65 | 1.5538e-05 4.254e-08 | d yr |
n | .1744196635235116 | 1.313e-09 | deg/d |
Q | 3.85076803088979 | 1.9326e-08 | au |
|
| | Orbit Determination Parameters
Additional Information
|